[[{"header":{"parameterUnit":"m.s-1","parameterCategory":1,"la1":30.2991,"la2":30.254,"lo1":-89.0895,"lo2":-89.0444,"dy":0.0017,"dx":0.0017,"nx":28,"ny":28,"refTime":"2025-03-15T03:00:00:Z","depth":0,"parameterNumber":2,"parameterNumberName":"U-component_of_WINDS"},"data":[0,0,0,0,0,0,0,0,0,0,0,0,0,0,0,0,0,0,0,0,0,0,0,0,0,0,0,0,0,0,0,0,0,0,0,0,0,0,0,0,0,0,0,0,0,0,0,0,0,0,0,0,0,0,0,0,0,0,-5.5656,-5.5657,0,-5.5805,-5.5807,-5.5808,-5.583,-5.5829,-5.5828,-5.5826,-5.5977,-5.5982,-5.5987,0,0,0,0,0,0,0,0,0,0,0,0,0,-5.5388,-5.5393,-5.5656,-5.5657,-5.5659,-5.5805,-5.5807,-5.5809,-5.5831,-5.5829,-5.5827,-5.5826,-5.5975,-5.5981,-5.5988,0,0,0,0,0,0,0,0,0,0,0,0,0,-5.5518,-5.5395,-5.5655,-5.5688,-5.5692,-5.5804,-5.5807,-5.5809,-5.5831,-5.5829,-5.5827,-5.5825,-5.5973,-5.5981,-5.5989,-5.6078,0,0,-5.6013,-5.6016,0,0,0,0,0,0,0,0,-5.551,-5.5527,-5.5681,-5.5686,-5.5691,-5.5797,-5.5768,-5.5899,-5.5831,-5.5778,-5.5826,-5.5824,-5.5919,-5.5931,-5.5963,-5.6085,-5.6092,-5.6014,-5.6018,-5.6022,-5.6024,0,0,0,0,0,0,0,-5.5501,-5.5521,-5.5715,-5.5683,-5.5689,-5.5695,-5.5711,-5.5793,-5.5858,-5.5783,-5.5785,-5.5802,-5.5921,-5.5956,-5.5967,-5.6094,-5.6013,-5.602,-5.6025,-5.6028,-5.6297,-5.6299,0,0,0,0,0,0,-5.5487,-5.5513,-5.571,-5.5719,-5.5594,-5.5701,-5.5719,-5.5765,-5.5857,-5.5869,-5.5804,-5.5803,-5.5943,-5.5958,-5.5972,-5.6083,-5.6022,-5.6029,-5.6034,-5.6295,-5.6298,-5.63,0,0,0,0,0,0,-5.5481,-5.5504,-5.5704,-5.5617,-5.5643,-5.5708,-5.5759,-5.5769,-5.5804,-5.5873,-5.5884,-5.5827,-5.5942,-5.5961,-5.6052,-5.6088,-5.6033,-5.604,-5.6292,-5.6296,-5.6299,-5.6304,0,0,0,0,0,0,-5.5473,-5.5502,-5.5536,-5.5618,-5.5647,-5.5781,-5.5761,-5.5773,-5.5818,-5.5817,-5.5898,-5.5909,-5.5942,-5.604,-5.606,-5.6098,-5.6046,-5.6289,-5.6294,-5.6298,-5.6301,-5.6307,-5.6313,0,0,0,0,0,-5.5463,-5.5531,-5.5538,-5.5562,-5.5692,-5.5783,-5.58,-5.5837,-5.582,-5.5856,-5.59,-5.5907,-5.6082,-5.6049,-5.6072,-5.6113,-5.6287,-5.6292,-5.6297,-5.6298,-5.6306,-5.6312,0,0,0,0,0,0,-5.5451,-5.5542,-5.5551,-5.5647,-5.5707,-5.5787,-5.5832,-5.5844,-5.5909,-5.5906,-5.5948,-5.5967,-5.6055,-5.6093,-5.6055,-5.6204,-5.6183,-5.6193,-5.6175,-5.6183,-5.6189,-5.6177,-5.6053,0,0,0,0,0,-5.546,-5.5527,-5.5603,-5.568,-5.571,-5.5766,-5.5807,-5.583,-5.5894,-5.5919,-5.5971,-5.6032,-5.61,-5.6145,-5.6212,-5.6307,-5.6325,-5.6347,-5.6353,-5.6358,-5.6365,-5.6418,-5.6428,-5.6318,-5.6318,-5.6318,0,0,-5.5478,-5.5536,-5.5576,-5.568,-5.5729,-5.5796,-5.5787,-5.5859,-5.5909,-5.593,-5.6018,-5.6059,-5.613,-5.6223,-5.6267,-5.6258,-5.64,-5.6364,-5.6368,-5.6373,-5.6425,-5.6435,-5.6444,-5.6322,-5.6321,-5.632,0,0,-5.5545,-5.5597,-5.5667,-5.5717,-5.5793,-5.583,-5.5847,-5.5925,-5.5952,-5.6043,-5.6059,-5.612,-5.6238,-5.6288,-5.6328,-5.6417,-5.6425,-5.6438,-5.6468,-5.6519,-5.6528,-5.6536,-5.6566,-5.6577,-5.6446,-5.6446,-5.6446,0,-5.5558,-5.5661,-5.5701,-5.5773,-5.5818,-5.5842,-5.5912,-5.5959,-5.6052,-5.6082,-5.6072,-5.622,-5.627,-5.6375,-5.6397,-5.643,-5.645,-5.6427,-5.6524,-5.6532,-5.654,-5.6569,-5.6581,-5.6447,-5.6447,-5.6447,-5.6446,0,-5.5672,-5.5744,-5.5791,-5.5881,-5.5932,-5.6003,-5.6054,-5.61,-5.612,-5.6158,-5.625,-5.6311,-5.639,-5.6418,-5.6437,-5.6526,-5.6518,-5.6515,-5.6494,-5.6551,-5.6579,-5.6591,-5.6448,-5.6448,-5.6447,-5.6447,0,0,-5.5733,-5.5846,-5.5863,-5.5904,-5.599,-5.6046,-5.6119,-5.6198,-5.6236,-5.6301,-5.6361,-5.6462,-5.646,-5.6506,-5.6532,-5.6577,-5.6642,-5.6569,-5.6571,-5.6579,-5.6743,-5.6743,-5.6755,-5.665,-5.6652,-5.6654,-5.6736,0,-5.5809,-5.5938,-5.5978,-5.6086,-5.6152,-5.6177,-5.624,-5.63,-5.6338,-5.6399,-5.6442,-5.6511,-5.6505,-5.6533,-5.6579,-5.6625,-5.6675,-5.662,-5.6705,-5.6708,-5.6684,-5.677,-5.677,-5.6844,-5.6748,-5.675,-5.6751,0,-5.5913,-5.598,-5.6096,-5.6174,-5.6203,-5.6259,-5.6335,-5.6394,-5.6462,-5.6487,-5.654,-5.6562,-5.6639,-5.6616,-5.6721,-5.6682,-5.672,-5.6748,-5.6752,-5.6759,-5.6731,-5.6777,-5.6869,-5.6879,-5.6769,-5.6768,-5.6766,0,-5.5944,-5.6063,-5.6147,-5.6182,-5.6276,-5.6315,-5.6356,-5.6422,-5.6468,-5.6535,-5.6564,-5.6639,-5.6679,-5.6736,-5.6778,-5.6758,-5.6879,-5.686,-5.6901,-5.69,-5.6923,-5.692,-5.702,-5.6951,-5.6951,-5.6951,-5.6951,0,-5.6022,-5.6091,-5.6162,-5.6214,-5.6292,-5.6337,-5.6414,-5.6456,-5.6515,-5.6575,-5.6602,-5.6658,-5.6711,-5.6774,-5.6808,-5.6889,-5.6907,-5.6929,-5.6936,-5.6925,-5.6922,-5.6948,-5.6943,-5.6954,-5.6953,-5.6953,-5.6952,0,-5.6068,-5.6118,-5.6212,-5.6294,-5.6316,-5.637,-5.644,-5.6491,-5.6532,-5.6608,-5.6628,-5.6691,-5.6767,-5.6815,-5.6911,-5.6934,-5.7022,-5.703,-5.6999,-5.7002,-5.704,-5.7035,-5.7157,-5.7175,-5.7097,-5.7098,-5.7098,0,-5.6113,-5.6167,-5.6256,-5.6298,-5.634,-5.6408,-5.6455,-5.6502,-5.655,-5.6633,-5.6673,-5.6751,-5.6815,-5.6935,-5.6989,-5.7062,-5.707,-5.7108,-5.7081,-5.7068,-5.7068,-5.7064,-5.7069,-5.7112,-5.7112,-5.7113,-5.7113,0,-5.6188,-5.6211,-5.6278,-5.6354,-5.6409,-5.6471,-5.6533,-5.6566,-5.6624,-5.6676,-5.6754,-5.6804,-5.6903,-5.6979,-5.7058,-5.71,-5.7116,-5.7122,-5.7135,-5.7122,-5.7102,-5.7111,-5.7008,-5.7118,-5.7117,-5.7117,-5.7117,-5.7117,-5.6234,-5.6283,-5.6353,-5.6427,-5.6479,-5.6536,-5.6588,-5.6636,-5.6702,-5.6786,-5.6811,-5.6892,-5.696,-5.7068,-5.7112,-5.7176,-5.7171,-5.719,-5.7194,-5.7198,-5.7197,-5.7094,-5.7191,-5.719,-5.719,-5.719,-5.719,0,-5.6309,-5.6356,-5.6423,-5.6509,-5.6567,-5.658,-5.6649,-5.6696,-5.6768,-5.683,-5.6894,-5.6983,-5.7058,-5.7119,-5.7196,-5.7235,-5.7245,-5.7254,-5.725,-5.7259,-5.7198,-5.7178,-5.7245,-5.7245,-5.7245,-5.7245,-5.7245,-5.7245,-5.6354,-5.6437,-5.6469,-5.6578,-5.6625,-5.6705,-5.6744,-5.6797,-5.6847,-5.6946,-5.7009,-5.7049,-5.7111,-5.7193,-5.7262,-5.7278,-5.7304,-5.7311,-5.7329,-5.727,-5.7263,-5.7257,-5.7239,-5.7317,-5.7317,-5.7384,-5.7385,-5.7385]},{"header":{"parameterUnit":"m.s-1","parameterCategory":1,"la1":30.2991,"la2":30.254,"lo1":-89.0895,"lo2":-89.0444,"dy":0.0017,"dx":0.0017,"nx":28,"ny":28,"refTime":"2025-03-15T03:00:00:Z","depth":0,"parameterNumber":3,"parameterNumberName":"V-component_of_WINDS"},"data":[0,0,0,0,0,0,0,0,0,0,0,0,0,0,0,0,0,0,0,0,0,0,0,0,0,0,0,0,0,0,0,0,0,0,0,0,0,0,0,0,0,0,0,0,0,0,0,0,0,0,0,0,0,0,0,0,0,0,4.6391,4.6392,0,4.6461,4.6462,4.6462,4.6479,4.6478,4.6478,4.6477,4.6546,4.6548,4.6551,0,0,0,0,0,0,0,0,0,0,0,0,0,4.6273,4.6275,4.6391,4.6392,4.6393,4.6461,4.6462,4.6463,4.6479,4.6478,4.6478,4.6477,4.6545,4.6548,4.6551,0,0,0,0,0,0,0,0,0,0,0,0,0,4.6332,4.6276,4.6391,4.6409,4.6412,4.6461,4.6462,4.6463,4.6479,4.6478,4.6478,4.6477,4.6544,4.6548,4.6551,4.6586,0,0,4.6562,4.6563,0,0,0,0,0,0,0,0,4.6328,4.6336,4.6406,4.6408,4.6411,4.6461,4.6445,4.6504,4.6479,4.6453,4.6477,4.6477,4.6518,4.6524,4.6538,4.6589,4.6592,4.6562,4.6564,4.6565,4.6566,0,0,0,0,0,0,0,4.6324,4.6333,4.6419,4.6407,4.641,4.6414,4.6422,4.6457,4.6489,4.6455,4.6457,4.6465,4.6519,4.6535,4.654,4.6593,4.6562,4.6565,4.6567,4.6568,4.6681,4.6682,0,0,0,0,0,0,4.6317,4.633,4.6417,4.6421,4.6367,4.6417,4.6425,4.6445,4.6488,4.6494,4.6466,4.6466,4.6529,4.6536,4.6542,4.6589,4.6565,4.6569,4.657,4.668,4.6681,4.6682,0,0,0,0,0,0,4.6315,4.6325,4.6414,4.6376,4.6387,4.642,4.6442,4.6447,4.6462,4.6496,4.6502,4.6475,4.6529,4.6537,4.6576,4.6591,4.657,4.6573,4.6679,4.6681,4.6682,4.6681,0,0,0,0,0,0,4.6311,4.6324,4.6337,4.6376,4.6389,4.6446,4.6443,4.6449,4.6469,4.6469,4.6507,4.6512,4.6529,4.6571,4.658,4.6596,4.6576,4.6678,4.668,4.6681,4.668,4.6682,4.6684,0,0,0,0,0,4.6307,4.6332,4.6337,4.6348,4.6407,4.6447,4.6455,4.6474,4.647,4.6484,4.6506,4.6511,4.6588,4.6575,4.6585,4.6602,4.6677,4.6679,4.6681,4.6679,4.6682,4.6684,0,0,0,0,0,0,4.6292,4.6338,4.6344,4.6383,4.6411,4.645,4.6468,4.6476,4.6506,4.6505,4.6527,4.6536,4.6574,4.6591,4.6576,4.664,4.6633,4.6637,4.6627,4.663,4.6632,4.6628,4.6579,0,0,0,0,0,4.6294,4.6323,4.6361,4.6392,4.6406,4.6435,4.6453,4.6466,4.6496,4.6508,4.6532,4.6561,4.6592,4.6612,4.6642,4.6682,4.6692,4.6699,4.6702,4.6703,4.6707,4.6733,4.6737,4.6689,4.6689,4.6689,0,0,4.6297,4.6325,4.6342,4.639,4.6413,4.6444,4.6444,4.6476,4.6499,4.6512,4.6551,4.6571,4.6604,4.6645,4.6664,4.6661,4.6723,4.6706,4.6707,4.671,4.6736,4.674,4.6744,4.6691,4.6691,4.669,0,0,4.6318,4.6342,4.6372,4.6397,4.6434,4.6453,4.646,4.6499,4.6513,4.6553,4.6564,4.6592,4.6644,4.6669,4.6689,4.6724,4.6731,4.6733,4.6745,4.677,4.6774,4.6778,4.6793,4.6798,4.6737,4.6737,4.6737,0,4.6317,4.6364,4.6386,4.6419,4.644,4.6456,4.6487,4.651,4.6554,4.6569,4.6565,4.6634,4.6657,4.6706,4.6715,4.6729,4.674,4.6729,4.6772,4.6776,4.6779,4.6794,4.6799,4.6737,4.6737,4.6737,4.6737,0,4.6362,4.6395,4.6415,4.646,4.6484,4.6515,4.6543,4.6565,4.6577,4.6597,4.6639,4.6668,4.6707,4.6719,4.6729,4.677,4.6767,4.6767,4.676,4.6784,4.6798,4.6804,4.6737,4.6737,4.6737,4.6737,0,0,4.6374,4.6434,4.6441,4.6464,4.6507,4.6533,4.6566,4.6605,4.6625,4.6655,4.6685,4.6731,4.6733,4.6755,4.6769,4.6791,4.6822,4.6789,4.679,4.6796,4.6871,4.6872,4.6878,4.6826,4.6827,4.6828,4.6869,0,4.6403,4.6464,4.6487,4.6537,4.6569,4.6586,4.6616,4.6646,4.6667,4.6698,4.672,4.6754,4.6752,4.6766,4.6788,4.6813,4.6837,4.681,4.6855,4.6857,4.6848,4.6885,4.6885,4.6922,4.6875,4.6876,4.6876,0,4.6443,4.6477,4.6532,4.6575,4.659,4.6616,4.6656,4.6684,4.672,4.6734,4.6761,4.6775,4.6812,4.6803,4.6855,4.6837,4.6857,4.6872,4.6874,4.688,4.6869,4.6894,4.6934,4.6941,4.6885,4.6884,4.6884,0,4.6449,4.6509,4.655,4.6568,4.6619,4.6638,4.666,4.6696,4.6719,4.6754,4.677,4.6807,4.6828,4.6858,4.6882,4.6873,4.6934,4.6926,4.6948,4.6947,4.696,4.6959,4.7006,4.697,4.697,4.697,4.697,0,4.6479,4.6512,4.6554,4.6579,4.6618,4.6645,4.6682,4.6705,4.6738,4.6769,4.6785,4.6814,4.6843,4.6876,4.6895,4.6938,4.6947,4.696,4.6965,4.6959,4.6958,4.6973,4.6972,4.6971,4.6971,4.6971,4.6971,0,4.6492,4.6521,4.6568,4.6614,4.6627,4.6653,4.6693,4.6719,4.6742,4.6781,4.6792,4.6828,4.6868,4.6896,4.6946,4.6959,4.7006,4.7009,4.6995,4.6997,4.7019,4.7017,4.7078,4.7089,4.7044,4.7045,4.7045,0,4.6509,4.6535,4.6586,4.6609,4.6632,4.6668,4.6693,4.6721,4.6747,4.6793,4.6814,4.6856,4.6891,4.6955,4.6985,4.7025,4.7031,4.705,4.7037,4.7032,4.7034,4.7033,4.7037,4.7052,4.7052,4.7052,4.7052,0,4.6538,4.6552,4.6588,4.6631,4.6661,4.6695,4.673,4.6747,4.6782,4.681,4.6853,4.6881,4.6935,4.6977,4.7021,4.7044,4.7055,4.7057,4.7064,4.7059,4.7051,4.7059,4.7002,4.7055,4.7055,4.7055,4.7054,4.7054,4.6555,4.6581,4.6622,4.6662,4.6692,4.6725,4.6753,4.6782,4.6818,4.6865,4.688,4.6925,4.6964,4.7024,4.7049,4.7085,4.7083,4.7093,4.7096,4.7099,4.7101,4.7044,4.7093,4.7093,4.7093,4.7093,4.7093,0,4.6586,4.6614,4.6652,4.6702,4.6735,4.6744,4.6784,4.6811,4.6851,4.6887,4.6922,4.6973,4.7016,4.7051,4.7095,4.7118,4.7124,4.7128,4.7128,4.7134,4.7098,4.7088,4.7123,4.7123,4.7123,4.7123,4.7123,4.7123,4.6606,4.6652,4.6672,4.6734,4.6762,4.6808,4.683,4.6862,4.6891,4.6948,4.6984,4.7008,4.7045,4.7092,4.7132,4.7142,4.7158,4.7162,4.7172,4.7139,4.7135,4.7132,4.7123,4.7164,4.7165,4.7205,4.7206,4.7206]}]]